Flag Weather past 2 weeks in Lincoln, Nebraska, U.S.A.

Now
43 °F

Overcast.


Feels Like: 35 °F
Forecast: 22 / 37 °F
Wind: 18 mph from South

Location: Lincoln Municipal Airport

Current Time: Nov 25, 2014 at 10:42:57 PM

Latest Report: Nov 25, 2014 at 9:54 PM


Visibility: 10 mi

Pressure: 29.88 "Hg

Humidity: 49%

Dew point: 25 °F

Location of LincolnLocation

Historic Weather in Lincoln — Graph

°F

Lincoln temperature yesterday

Maximum temperature yesterday: 39 °F (at 2:54 PM)
Minimum temperature yesterday: 26 °F (at 11:54 PM)
Average temperature yesterday: 33 °F

Past Weeks' High & Low Weather Summary

 TemperatureHumidityPressure
High58 °F (Nov 22, 2:54 PM)93% (Nov 22, 6:54 AM)30.67 "Hg (Nov 22, 6:54 AM)
Low4 °F (Nov 14, 6:54 AM)30% (Nov 24, 3:54 PM)29.45 "Hg (Nov 23, 4:54 AM)
Average26 °F65%30.18 "Hg
* Reported Nov 10 8:54 PM — Nov 25 8:54 PM, Lincoln, Weather by CustomWeather, © 2014

Note: Actual official high and low records may vary slightly from our data, if they occured in-between our weather recording intervals... More about our weather records

Advertising

Lincoln weather history for previous 24 hours

 ConditionsComfort  
Time TempWeatherWind HumidityBarometerVisibility
8:54 PM
Nov 25
42 °FOvercast.9 mph51%29.91 "Hg10 mi
7:54 PM42 °FMostly cloudy.9 mph51%29.93 "Hg10 mi
6:54 PM43 °FMostly cloudy.9 mph49%29.97 "Hg10 mi
5:54 PM42 °FOvercast.9 mph51%29.98 "Hg10 mi
4:54 PM44 °FOvercast.9 mph45%29.98 "Hg10 mi
3:54 PM47 °FSunny.12 mph39%29.99 "Hg10 mi
2:54 PM48 °FSunny.14 mph39%30.00 "Hg10 mi
1:54 PM48 °FSunny.16 mph41%30.03 "Hg10 mi
12:54 PM45 °FSunny.12 mph45%30.07 "Hg10 mi
11:54 AM41 °FSunny.12 mph53%30.11 "Hg10 mi
10:54 AM36 °FSunny.6 mph62%30.15 "Hg10 mi
9:54 AM28 °FPassing clouds.3 mph72%30.19 "Hg10 mi
8:54 AM23 °FPassing clouds.3 mph78%30.19 "Hg10 mi
7:54 AM17 °FSunny.5 mph76%30.21 "Hg10 mi
6:54 AM17 °FClear.3 mph74%30.21 "Hg10 mi
5:54 AM18 °FClear.3 mph71%30.20 "Hg10 mi
4:54 AM19 °FClear.No wind68%30.21 "Hg10 mi
3:54 AM20 °FClear.5 mph62%30.22 "Hg10 mi
2:54 AM22 °FClear.5 mph55%30.21 "Hg10 mi
1:54 AM23 °FClear.No wind53%30.19 "Hg10 mi
12:54 AM21 °FClear.No wind60%30.18 "Hg10 mi
11:54 PM
Nov 24
26 °FClear.10 mph46%30.18 "Hg10 mi
10:54 PM27 °FClear.10 mph45%30.16 "Hg10 mi
Weather by CustomWeather, © 2014

See weather overviewHow to use our weather pages